Retour au catalogue

STARLINK-31267

ActifCommunicationsVLEO
NORAD 59468·PAYLOAD·🇺🇸 United States

Lancé Apr 10, 2024 depuis Cape Canaveral Space Force Station

Loading…

Prochains Passages (prochaines 24 heures)

TLE

FraisSource: CelesTrak SupGP

Époque: Sep 15, 2026, 02:16 UTC

1 59468C 24068P   26258.09493056 -.00024171  00000+0 -87527-3 0  2587
2 59468  43.0044  40.6378 0001940 268.2951 264.5631 15.27596715    10

Suivez STARLINK-31267 en temps réel avec AllMySat

Download on the App Store